Cosmos 1766 - Orbit

View from above orbital plane
View from above orbital plane
View from above satellite
View from above satellite

Ground track
Ground track

The orbit data is extracted from the following two-line orbital elements,

1 16881U 86055A   13143.82435434  .00002894  00000-0  21169-3 0  5961
2 16881 082.5133 030.1750 0014670 103.0167 257.2698 15.03179033457670
Epoch (UTC): 23 May 2013 19:47:04
Eccentricity: 0.0014670
inclination: 82.5133°
perigee height: 547 km
apogee height: 567 km
right ascension of ascending node: 30.1750°
argument of perigee: 103.0167°
revolutions per day: 15.03179033
mean anomaly at epoch: 257.2698°
orbit number at epoch: 45767

The dashed part of the orbit path shows where the satellite is in the earth's shadow,  

Developed and maintained by Chris Peat, Heavens-Above GmbH. Please read the updated FAQ before sending e-mail. Imprint. DLR